Weather History for Wausau, WI

Change the Weather History Date:

Wednesday, April 3, 2013

  Actual Average Record
Temperature  
Mean Temperature 26 °F 38 °F  
Max Temperature 38 °F 48 °F 77 °F (1921)
Min Temperature 14 °F 28 °F 4 °F (1954)
Degree Days  
Heating Degree Days 39 27  
Month to date heating degree days 117 82  
Since 1 July heating degree days 7193 7303  
Cooling Degree Days 0 0  
Month to date cooling degree days 0 0  
Year to date cooling degree days 0 0  
Moisture  
Dew Point 11 °F    
Average Humidity 58    
Maximum Humidity 88    
Minimum Humidity 27    
Precipitation  
Precipitation 0.00 in 0.08 in 1.38 in (1913)
Month to date precipitation 0.00 0.22  
Year to date precipitation 5.33 3.92  
Snow  
Snow 0.00 in 0.20 in 5.60 in (1923)
Month to date snowfall 0.0 0.6  
Since 1 July snowfall 68.7 55.9  
Snow Depth 6.00 in    
Sea Level Pressure  
Sea Level Pressure 30.36 in    
Wind  
Wind Speed 5 mph (SW)    
Max Wind Speed 16 mph    
Max Gust Speed 18 mph    
Visibility 10 miles    
Events      
T = Trace of Precipitation, MM = Missing Value Source: NWS Daily Summary

Daily Weather History Graph

Daily Weather History Graph

Search for Another Location

Airport:

Trip Planner

Search our weather history database for the weather conditions in past years. The results will help you decide how hot, cold, wet, or windy it might be!

Date:

Astronomy

Apr. 03, 2013 Rise Set
Actual Time 6:35 AM CDT 7:29 PM CDT
Civil Twilight 6:05 AM CDT 7:58 PM CDT
Nautical Twilight 5:29 AM CDT 8:34 PM CDT
Astronomical Twilight 4:52 AM CDT 9:11 PM CDT
Moon 2:32 AM CDT (4/3) 12:25 PM CDT (4/3)
Length of Visible Light 13h 53m
Length of Day
12h 54m
Last Quarter, 44% of the Moon is Illuminated
Apr 3
Last Quarter
Apr 10
New
Apr 18
First Quarter
Apr 25
Full
May 2
Last Quarter

Hourly Weather History & Observations

Time (CDT) Temp. Windchill Dew Point Humidity Pressure Visibility Wind Dir Wind Speed Gust Speed Precip Events Conditions
12:54 AM 23.0 °F 18.4 °F 9.0 °F 55% 30.34 in 10.0 mi NNW 3.5 mph - N/A   Clear
1:54 AM 21.0 °F 16.2 °F 10.0 °F 63% 30.36 in 10.0 mi NNW 3.5 mph - N/A   Clear
2:54 AM 19.9 °F 11.1 °F 10.0 °F 65% 30.37 in 10.0 mi NW 6.9 mph - N/A   Clear
3:54 AM 19.0 °F 12.3 °F 9.0 °F 65% 30.38 in 10.0 mi NW 4.6 mph - N/A   Clear
4:54 AM 17.1 °F 11.7 °F 8.1 °F 68% 30.40 in 10.0 mi NNW 3.5 mph - N/A   Clear
5:54 AM 15.1 °F - 8.1 °F 74% 30.41 in 10.0 mi Calm Calm - N/A   Clear
6:54 AM 14.0 °F - 10.0 °F 84% 30.43 in 10.0 mi Calm Calm - N/A   Clear
7:54 AM 17.1 °F - 10.9 °F 77% 30.45 in 10.0 mi Calm Calm - N/A   Clear
8:54 AM 23.0 °F - 10.9 °F 60% 30.46 in 10.0 mi Calm Calm - N/A   Clear
9:54 AM 27.0 °F - 9.0 °F 47% 30.48 in 10.0 mi Calm Calm - N/A   Clear
10:54 AM 30.0 °F 24.1 °F 10.9 °F 45% 30.48 in 10.0 mi South 5.8 mph - N/A   Clear
11:54 AM 32.0 °F 24.2 °F 8.1 °F 37% 30.47 in 10.0 mi SW 9.2 mph - 0.00 in   Clear
12:54 PM 34.0 °F - 9.0 °F 35% 30.41 in 10.0 mi Calm Calm - 0.00 in   Clear
1:54 PM 35.1 °F - 6.1 °F 30% 30.38 in 10.0 mi Calm Calm - N/A   Clear
2:54 PM 37.0 °F 33.3 °F 7.0 °F 29% 30.37 in 10.0 mi SW 4.6 mph - N/A   Clear
3:54 PM 37.9 °F 30.5 °F 9.0 °F 30% 30.35 in 10.0 mi SSW 11.5 mph - N/A   Clear
4:54 PM 37.9 °F 30.5 °F 10.0 °F 32% 30.33 in 10.0 mi SSW 11.5 mph - N/A   Clear
5:54 PM 37.0 °F 28.9 °F 15.1 °F 41% 30.32 in 10.0 mi SSW 12.7 mph - N/A   Clear
6:54 PM 36.0 °F 29.0 °F 16.0 °F 44% 30.29 in 10.0 mi SSE 9.2 mph - N/A   Clear
7:54 PM 34.0 °F 28.0 °F 15.1 °F 46% 30.27 in 10.0 mi SSE 6.9 mph - N/A   Clear
8:54 PM 33.1 °F 28.7 °F 15.1 °F 48% 30.27 in 10.0 mi South 4.6 mph - N/A   Clear
9:54 PM 32.0 °F 26.4 °F 15.1 °F 50% 30.24 in 10.0 mi South 5.8 mph - N/A   Clear
10:54 PM 33.1 °F 26.1 °F 16.0 °F 50% 30.22 in 10.0 mi South 8.1 mph - N/A   Clear
11:54 PM 34.0 °F 26.6 °F 17.1 °F 50% 30.20 in 10.0 mi South 9.2 mph - N/A   Clear